Location: *
(43.0167°S, 179.9000°E)
Time: 11:19:11
(UTC+00:00)

Cosmos 1745 Rocket - Pass Details

Date: 12 August 2024
Orbit: 952 x 997 km, 83.0° (Epoch: 12 September)

Event Time Altitude Azimuth Distance (km) Brightness Sun altitude
Exits shadow 16:13:08 78° 17° (NNE) 1,024 4.0 -30.4°
Maximum altitude 16:13:35 85° 84° (E) 1,009 3.9 -30.3°
Drops below altitude 10° 16:20:02 10° 171° (S) 2,796 6.5 -29.1°
Sets 16:22:35 0° 171° (S) 3,755 7.2 -28.6°
